Location: Kerberlivit
(48.2787°N, 4.5413°W)
Time: 18:10:40
(UTC+00:00)

Cosmos 2251 Rocket - Pass Details

Date: 18 February 2020
Orbit: 764 x 793 km, 74.0° (Epoch: 28 March)

Event Time Altitude Azimuth Distance (km) Brightness Sun altitude
Exits shadow 05:08:55 55° 254° (WSW) 925 3.5 -22.6°
Maximum altitude 05:09:43 63° 296° (WNW) 863 3.5 -22.5°
Drops below altitude 10° 05:15:00 10° 18° (NNE) 2,339 6.3 -21.6°
Sets 05:17:26 0° 21° (NNE) 3,276 7.1 -21.2°
